Flag for Canada Weather past 2 weeks in Red Deer, Alberta, Canada

Now
41 °F

Passing clouds.


Feels Like: 32 °F
Forecast: 34 / 49 °F
Wind: 20 mph from Northwest

Location: Red Deer

Current Time: Apr 18, 2015 at 9:55:54 AM

Latest Report: Apr 18, 2015 at 9:00 AM


Visibility: 15 mi

Pressure: 30.30 "Hg

Humidity: 53%

Dew point: 25 °F

Location of Red DeerLocation

Historic Weather in Red Deer — Graph

°F

Red Deer temperature yesterday

Maximum temperature yesterday: 68 °F (at 3:00 PM)
Minimum temperature yesterday: 25 °F (at 6:00 AM)
Average temperature yesterday: 48 °F

Past Weeks' High & Low Weather Summary

 TemperatureHumidityPressure
High68 °F (Apr 17, 3:00 PM)100% (Apr 4, 1:00 PM)30.30 "Hg (Apr 4, 1:00 PM)
Low18 °F (Apr 12, 5:00 AM)10% (Apr 12, 2:00 PM)29.33 "Hg (Apr 11, 11:00 AM)
Average38 °F55%29.97 "Hg
* Reported Apr 3 8:00 AM — Apr 18 8:00 AM, Red Deer, Weather by CustomWeather, © 2015

Note: Actual official high and low records may vary slightly from our data, if they occured in-between our weather recording intervals... More about our weather records

Advertising

Red Deer weather history for previous 24 hours

 ConditionsComfort  
Time TempWeatherWind HumidityBarometerVisibility
8:00 AM
Sat, Apr 18
37 °FPassing clouds.18 mph60%30.30 "Hg15 mi
7:00 AM36 °FPassing clouds.15 mph65%30.28 "Hg15 mi
6:00 AM37 °FPassing clouds.17 mph56%30.24 "Hg15 mi
5:00 AM39 °FPassing clouds.14 mph48%30.21 "Hg15 mi
4:00 AM41 °FOvercast.14 mph45%30.18 "Hg15 mi
3:00 AM41 °FOvercast.12 mph53%30.16 "Hg15 mi
2:00 AM43 °FMostly cloudy.16 mph57%30.14 "Hg15 mi
1:00 AM43 °FMostly cloudy.21 mph66%30.14 "Hg15 mi
12:00 AM43 °FOvercast.12 mph71%30.09 "Hg15 mi
11:00 PM
Fri, Apr 17
43 °FPassing clouds.8 mph66%30.06 "Hg15 mi
10:00 PM48 °FScattered showers. Partly cloudy.12 mph54%30.04 "Hg15 mi
9:00 PM52 °FScattered showers. Scattered clouds.15 mph41%29.99 "Hg15 mi
8:00 PM52 °FScattered clouds.10 mph41%29.96 "Hg15 mi
7:00 PM59 °FRefreshingly cool.12 mph31%29.94 "HgN/A
6:00 PM64 °FBroken clouds.21 mph16%29.90 "Hg15 mi
5:00 PM66 °FBroken clouds.7 mph21%29.88 "Hg15 mi
4:00 PM64 °FMostly cloudy.18 mph24%29.89 "Hg15 mi
3:00 PM68 °FBroken clouds.22 mph21%29.90 "Hg15 mi
2:00 PM63 °FBroken clouds.28 mph25%29.96 "Hg15 mi
1:00 PM57 °FBroken clouds.26 mph31%30.00 "Hg15 mi
12:00 PM57 °FBroken clouds.32 mph29%30.05 "Hg15 mi
11:00 AM54 °FPartly sunny.28 mph33%30.08 "Hg15 mi
10:00 AM48 °FPartly sunny.22 mph37%30.14 "Hg15 mi
9:00 AM41 °FPartly sunny.16 mph57%30.19 "Hg15 mi
Weather by CustomWeather, © 2015

See weather overviewHow to use our weather pages